GFSNE_sfc_dewp_192.txt.gz
Dewpoint
35 33 31 33 33 32 30 28 26 24 23 27 25 27 26 27 31 26 27 32 35 32 26 27 27 27 28 29 31 32 33 34 35 36 36 37 38 39
31 30 30 30 30 29 28 28 27 24 22 25 24 26 26 21 27 26 25 30 31 32 33 28 27 26 27 28 29 30 30 32 33 34 35 35 36 37
29 30 28 29 28 27 27 27 26 25 22 22 23 24 25 25 24 25 23 22 23 28 32 30 32 30 27 28 27 27 28 30 30 31 33 34 35 36
28 27 25 22 27 26 26 24 25 23 21 19 21 21 21 23 24 21 19 15 19 23 28 30 28 30 30 29 29 29 27 27 28 30 31 32 32 33
27 27 26 27 24 24 23 24 23 17 21 19 18 21 21 23 18 19 17 18 14 19 23 24 26 27 26 27 27 27 30 30 28 28 29 29 29 30
28 25 22 21 21 18 19 18 17 18 17 16 16 16 16 17 17 14 13 15 14 13 17 20 24 21 22 23 24 24 24 26 27 27 26 28 29 29
26 18 19 21 20 19 14 15 14 14 13 13 12 13 12 11 10 12 10 12 14 16 15 14 16 18 20 23 22 23 26 27 24 24 26 27 29 29
21 19 20 21 21 19 17 15 13 10 10 11 11 10 8 8 10 10 12 11 10 15 12 14 17 18 19 19 23 25 24 22 24 26 26 27 28 29
18 20 9 14 21 18 17 21 21 18 20 14 13 8 7 8 10 10 10 10 10 11 14 14 18 17 19 19 21 21 21 23 24 24 24 25 26 27
19 18 19 18 18 17 15 15 14 14 18 11 10 9 10 11 12 10 11 11 13 16 17 12 17 18 18 18 19 21 23 23 21 22 22 23 26 26
16 16 16 16 17 16 15 14 12 14 12 13 12 14 14 14 14 12 11 10 11 12 14 16 15 14 15 16 19 20 21 20 20 21 21 21 23 25
19 17 17 15 14 13 12 11 16 14 9 9 11 12 14 14 17 14 12 10 10 10 16 12 12 13 10 13 16 17 19 19 19 19 21 21 21 20
24 22 19 16 11 11 10 14 13 11 12 13 15 16 16 16 16 14 11 11 10 10 13 12 11 12 12 12 14 16 17 17 17 17 19 20 21 22
20 22 17 13 9 9 12 12 12 13 15 17 15 14 15 14 15 15 14 13 12 10 11 11 12 12 12 10 10 13 14 15 16 16 17 20 21 21
20 13 8 9 11 14 16 14 12 15 15 13 12 14 14 14 15 15 15 15 14 13 9 13 12 12 11 10 9 10 9 11 15 17 17 17 18 20
13 12 12 14 10 10 11 15 15 14 12 11 13 13 13 13 12 11 11 10 9 10 13 12 11 10 9 9 8 7 10 10 13 14 14 14 14 16
13 11 13 17 15 13 15 12 14 12 9 10 11 7 11 12 10 11 10 8 8 7 8 9 10 9 9 8 8 9 8 9 10 10 10 10 12 14
9 10 13 13 13 12 10 9 10 9 10 7 5 9 9 7 9 9 9 8 7 6 5 6 7 6 7 8 9 7 6 6 7 8 10 11 12 15
8 12 13 12 13 11 10 8 7 8 6 7 7 8 3 8 7 7 6 7 6 4 4 5 5 5 2 -1 3 7 4 6 7 9 12 11 10 11
12 13 12 14 12 10 9 8 7 7 6 6 5 4 5 5 6 5 6 4 2 3 3 4 4 3 3 1 2 5 9 6 7 7 8 12 13 15
17 17 15 12 11 10 9 7 5 5 5 6 7 3 2 3 4 5 3 0 1 2 1 1 2 6 5 6 0 -1 1 8 9 8 10 11 10 12
16 14 14 12 11 9 8 6 6 5 5 4 1 0 0 4 4 0 1 1 1 1 1 2 3 3 2 -0 -2 -2 -0 3 8 10 11 12 12 10
15 15 13 14 11 9 10 8 7 3 4 3 2 2 1 0 0 1 0 1 -1 -1 -1 -2 1 0 -2 -2 -2 -1 0 0 2 5 7 11 13 16

GFSNE_sfc_dewp_198.txt.gz
Dewpoint
33 33 33 33 32 32 31 30 29 28 23 25 23 25 28 28 29 24 25 31 31 31 26 26 26 26 27 28 28 28 30 31 31 32 34 35 36 36
36 34 33 33 33 33 31 31 31 29 26 24 25 24 24 26 26 23 24 25 30 26 26 25 25 26 28 26 26 28 29 29 30 32 32 33 34 35
36 35 33 33 32 32 31 30 29 28 23 23 23 23 24 21 21 23 21 19 20 22 22 24 24 26 24 24 25 26 26 27 28 28 31 32 32 32
34 32 31 30 31 31 30 28 28 26 23 19 20 23 20 19 20 19 14 11 16 16 19 21 22 21 22 22 24 24 24 25 27 29 29 27 28 30
32 32 30 29 27 26 24 23 23 21 23 20 20 21 20 19 18 17 14 16 11 14 17 17 20 20 20 21 22 22 23 25 26 25 24 25 27 28
29 28 26 23 23 21 20 19 18 18 19 18 17 17 15 16 17 12 12 14 13 12 13 15 18 18 19 20 21 23 23 23 22 23 24 25 25 25
25 22 23 23 22 19 17 18 16 17 16 15 14 13 11 12 9 11 9 12 15 16 12 15 17 17 18 19 20 20 21 22 23 24 25 24 23 23
20 23 23 24 21 20 19 18 17 16 15 14 14 8 7 9 10 11 12 12 11 16 14 14 16 16 16 17 17 19 21 23 24 23 22 22 22 22
21 23 19 20 23 21 19 20 18 19 22 16 13 8 8 10 12 12 11 12 12 14 13 13 16 15 18 10 18 20 21 23 21 20 21 21 21 21
22 23 21 19 17 18 18 17 19 20 14 10 12 12 12 14 15 14 14 14 15 16 14 12 13 12 15 15 18 19 20 19 19 19 20 19 19 20
24 23 19 17 16 18 18 15 12 11 11 16 16 16 16 16 16 14 11 11 10 13 15 12 10 11 7 8 15 17 18 18 18 19 18 19 18 19
23 21 19 17 16 15 16 17 15 11 8 13 15 14 17 16 17 13 12 11 11 5 15 12 8 10 5 6 12 15 16 17 17 16 17 17 17 15
22 21 20 16 15 14 17 16 15 10 16 16 15 16 16 14 14 14 14 14 13 12 14 13 8 8 6 9 10 13 14 15 13 12 15 16 17 16
21 21 21 17 15 14 16 15 15 16 16 15 12 10 12 12 13 16 15 12 13 9 11 10 9 10 10 8 7 6 11 12 12 11 12 14 15 14
20 19 20 15 14 17 16 16 14 13 10 8 8 9 12 12 15 13 13 14 14 13 7 9 10 10 10 7 6 6 6 8 10 12 11 11 10 8
21 20 16 16 12 8 11 13 11 6 7 5 6 9 9 10 12 13 10 11 9 8 10 9 8 7 6 7 7 5 6 5 8 9 8 7 7 7
14 12 10 8 5 3 3 1 1 -1 4 -1 -1 0 4 9 9 10 10 9 7 5 6 8 7 5 6 6 4 5 5 6 6 5 4 4 6 6
8 6 4 3 5 3 1 1 -3 -1 -2 -5 -8 -8 -2 -1 0 4 7 5 5 5 5 4 4 3 3 4 7 4 3 2 3 3 4 3 1 3
5 0 3 5 7 7 6 -1 0 -4 -8 -7 -7 -8 -9 -7 -7 -6 -5 -0 3 3 2 2 2 1 -2 -6 -3 3 0 1 2 3 1 1 1 1
10 7 7 7 7 7 -0 -2 -6 -8 -7 -8 -11 -11 -11 -7 -9 -8 -8 -10 -4 -2 -2 0 1 -0 -2 -4 -4 -1 6 2 0 -1 -0 1 2 7
7 7 4 3 5 5 1 -3 -5 -8 -11 -11 -10 -10 -13 -13 -13 -12 -14 -11 -10 -5 -5 -4 -3 1 1 0 -5 -6 -4 3 3 0 -0 -0 -1 0
12 11 9 7 5 5 -0 -5 -11 -12 -11 -12 -13 -17 -17 -14 -13 -15 -18 -16 -7 -6 -5 -4 -3 -3 -4 -4 -6 -8 -7 -5 -1 3 5 4 -0 -4
4 8 4 5 5 4 4 -2 -2 -10 -8 -9 -11 -8 -15 -14 -15 -15 -15 -13 -10 -9 -8 -8 -8 -6 -5 -7 -8 -9 -10 -10 -8 -7 -6 2 5 7

GFSNE_sfc_dewp_201.txt.gz
Dewpoint
36 34 32 32 34 33 33 32 31 29 26 26 26 28 29 30 28 26 27 29 31 27 27 26 28 27 29 28 29 30 32 31 32 33 34 34 35 36
37 35 34 35 35 36 36 36 36 34 29 27 28 30 30 25 30 25 29 30 26 25 25 26 25 28 26 26 26 28 28 28 30 30 31 33 34 34
37 37 36 36 36 36 37 36 34 31 26 25 25 25 23 23 24 22 20 17 19 22 23 26 24 23 24 25 25 26 26 26 27 30 31 30 31 32
37 36 35 35 35 35 34 32 30 28 25 20 22 22 21 21 20 18 13 9 15 17 22 20 22 22 22 22 24 24 24 25 27 28 26 27 29 30
35 34 34 33 32 31 29 27 26 23 24 20 19 22 20 20 17 16 14 15 11 14 16 18 20 20 20 21 22 23 25 25 24 24 25 26 27 26
34 34 32 30 28 24 22 21 20 21 21 19 17 17 16 17 16 12 12 14 13 12 13 15 18 18 19 20 22 21 22 22 23 24 25 25 24 24
30 25 25 26 24 22 19 19 19 18 17 16 15 13 12 12 9 13 10 13 16 17 14 15 15 16 17 17 18 18 21 22 24 24 23 22 22 23
22 25 25 25 23 22 21 20 19 17 16 15 13 9 9 10 12 12 14 13 12 18 14 15 16 15 14 14 16 19 21 23 22 21 20 21 21 21
25 22 19 21 23 21 20 22 22 21 21 16 12 10 10 11 12 12 12 12 12 15 13 13 17 15 16 9 17 20 21 19 19 19 19 20 19 20
24 23 21 19 19 19 20 21 17 15 13 10 13 12 13 14 15 15 14 12 14 16 14 12 16 15 15 15 17 18 21 20 19 19 19 18 19 19
23 22 19 16 18 20 18 16 14 12 18 19 19 19 19 19 15 13 10 8 12 13 16 13 13 10 8 9 14 16 18 17 17 18 17 17 18 18
23 21 21 18 19 20 19 15 14 8 12 14 13 17 17 15 16 12 12 10 11 8 15 11 8 8 3 7 11 14 16 16 16 15 16 16 17 14
21 21 21 17 16 17 19 19 18 12 18 14 14 16 14 12 13 14 13 12 13 11 14 12 6 7 4 5 8 13 13 14 12 11 13 14 15 15
21 21 21 17 17 17 18 16 16 18 17 15 13 12 12 12 13 16 12 10 12 8 10 10 8 9 7 7 4 5 9 10 11 10 10 12 14 14
21 21 21 18 16 18 17 18 17 16 14 12 11 12 12 12 15 12 12 14 14 13 7 8 8 9 9 7 6 5 5 6 9 10 12 10 9 9
21 22 20 18 15 14 17 17 15 13 11 9 9 10 10 10 11 12 9 10 8 7 10 8 6 5 6 5 5 4 5 4 7 8 9 8 6 5
14 12 13 11 10 9 7 4 1 0 4 -1 2 3 5 9 9 9 9 8 6 5 5 7 6 4 5 4 3 4 4 5 6 6 3 3 3 4
9 6 4 10 10 7 5 3 -2 -1 -2 -2 -5 -5 -2 -1 1 3 5 3 1 1 3 3 3 1 1 4 6 3 3 2 3 3 2 2 1 1
11 2 4 4 3 5 6 3 3 -2 -3 -2 -3 -6 -8 -7 -10 -8 -8 -2 -2 1 1 1 0 -0 -3 -8 -4 1 -1 0 0 1 2 0 -1 -1
7 2 0 4 3 5 -0 -3 -7 -9 -6 -6 -8 -12 -14 -10 -11 -10 -11 -14 -10 -4 -3 -2 -2 -2 -4 -6 -6 -4 5 1 -0 -1 -2 -1 0 5
5 5 3 6 6 7 5 2 1 -1 -9 -14 -14 -13 -17 -14 -15 -16 -17 -14 -15 -11 -8 -8 -6 -1 -2 -1 -6 -9 -6 2 2 -1 -1 -3 -4 -3
11 9 9 9 8 7 1 -1 -10 -13 -14 -13 -14 -17 -20 -17 -16 -16 -19 -20 -17 -14 -10 -7 -6 -4 -5 -8 -10 -9 -8 -7 -2 1 3 3 -3 -7
8 9 5 4 4 4 5 -0 1 -2 -5 -7 -8 -14 -20 -16 -13 -15 -19 -20 -17 -14 -12 -11 -9 -9 -9 -8 -9 -10 -11 -11 -10 -10 -9 -1 2 5

GFSNE_sfc_dewp_204.txt.gz
Dewpoint
35 33 33 34 35 34 34 33 30 28 25 28 28 32 33 34 30 31 30 32 29 29 26 28 28 30 28 28 28 30 31 32 33 33 34 35 36 36
37 36 36 36 36 37 37 37 37 34 29 31 32 33 33 30 31 31 32 29 26 26 28 28 28 25 26 26 28 28 28 29 30 32 33 33 33 33
37 36 36 37 38 38 38 38 37 36 33 31 32 33 31 30 26 22 20 18 22 24 27 23 23 24 25 24 25 26 26 27 28 31 30 30 30 32
37 37 36 37 36 37 38 36 36 34 32 29 29 26 24 24 21 18 11 10 14 22 22 22 21 22 22 22 24 24 25 26 27 27 26 27 28 30
36 35 35 34 34 34 34 33 34 34 34 31 24 22 21 20 16 15 14 14 10 20 18 19 19 19 20 21 22 23 23 24 24 24 25 26 27 27
35 35 34 34 33 32 32 31 29 28 29 24 19 15 15 15 14 11 12 14 12 12 14 15 16 17 17 18 19 19 20 22 23 24 26 24 24 24
33 33 33 33 31 26 23 22 23 22 21 17 15 12 11 10 8 11 10 13 15 16 13 13 13 14 14 15 13 17 20 21 23 24 22 22 22 23
25 26 28 28 26 25 24 22 22 20 18 16 13 10 9 10 11 12 13 13 12 17 13 14 13 14 12 10 15 17 21 22 21 21 20 21 21 21
23 21 20 22 23 22 24 24 23 23 22 15 13 10 8 10 12 12 12 12 12 14 12 13 16 14 15 9 16 18 20 22 20 19 19 20 20 19
23 22 21 19 21 21 19 15 13 13 12 10 12 13 13 14 15 14 13 13 14 15 13 13 17 16 18 15 15 17 19 21 20 18 19 19 18 19
23 21 18 18 22 24 18 15 16 16 19 20 20 21 20 18 15 12 10 9 12 13 15 12 15 14 14 14 16 14 17 15 15 17 16 17 17 18
22 21 19 19 23 22 18 14 12 15 17 17 18 19 17 16 16 11 11 10 11 11 15 12 13 12 9 12 15 16 16 15 15 14 15 16 16 14
23 22 22 21 21 21 20 18 15 14 18 14 15 15 13 12 13 13 11 10 10 10 13 12 11 11 11 10 12 14 14 14 11 10 13 13 15 14
20 19 20 19 21 22 22 20 18 19 17 15 16 15 12 12 15 14 9 8 10 8 9 9 11 10 10 8 8 11 13 12 11 9 8 12 13 13
19 20 19 19 19 19 19 20 19 18 16 14 14 14 13 12 15 15 13 12 12 11 7 7 7 8 9 8 8 8 7 8 10 10 9 7 8 8
22 22 20 19 15 19 21 18 18 17 16 15 15 15 13 13 13 12 10 11 10 9 10 6 5 5 6 5 4 6 5 5 7 8 7 7 4 2
18 16 15 13 13 13 13 13 12 12 13 12 13 13 11 12 12 11 10 9 6 5 5 6 5 3 4 2 4 3 4 5 6 6 3 4 3 1
13 13 8 11 12 11 12 10 9 10 12 11 11 10 10 10 10 8 9 7 5 4 4 4 3 2 -0 3 8 4 4 4 4 1 0 2 2 1
13 10 11 11 12 12 12 9 10 8 6 9 9 7 5 5 4 4 4 4 4 3 2 2 0 -2 -4 -5 -1 1 -1 1 1 2 1 0 1 1
12 10 9 8 7 8 6 5 3 0 4 6 5 4 2 4 2 3 1 -1 -0 -1 -1 -1 -3 -4 -5 -5 -5 -2 3 2 2 1 1 2 2 5
9 8 7 8 9 10 8 6 5 4 4 1 1 -0 -2 0 1 -2 -3 -10 -9 -5 -5 -5 -4 -1 -3 -2 -5 -5 -2 0 2 1 1 -1 -3 -2
11 11 9 10 11 11 7 5 1 0 -1 -0 0 -1 -4 -3 -1 -3 -6 -5 -5 -6 -8 -6 -5 -5 -6 -7 -8 -9 -6 -4 -1 1 2 2 -2 -6
13 13 10 8 7 6 7 4 6 4 3 3 1 -1 -8 -3 -5 -4 -5 -8 -9 -10 -10 -10 -9 -8 -9 -10 -10 -9 -10 -9 -7 -8 -6 -2 1 3